Temp_Advection
nan nan nan nan nan nan nan nan nan nan nan nan nan nan nan nan nan nan nan nan nan nan nan nan nan nan nan nan nan nan nan nan nan nan nan nan nan nan nan nan nan nan nan nan nan nan nan
nan -0 -0 -0 0 0 -0 -0 0 -0 -0 -0 -0 -0 -0 -0 -0 -1 -1 -1 -0 -0 -1 -1 -1 -0 0 -0 -1 0 0 0 0 -0 -0 0 0 0 0 0 -0 -0 0 -1 -1 -0 nan
nan -0 0 -0 -0 0 -0 -0 0 -0 -0 0 -0 -1 -1 -1 -1 -0 -1 -1 -1 -1 -1 -1 -0 0 -1 -2 0 0 0 -0 -0 -0 -0 0 -0 0 0 0 -0 0 0 -0 -0 -0 nan
nan 0 -0 -0 0 0 -0 -0 0 -0 -0 0 -0 -1 -1 -1 -1 -1 -1 -1 -1 -1 -1 -1 -0 -0 -1 -1 0 0 -0 -0 0 0 -0 0 0 0 0 0 -0 -0 -0 -0 -0 -0 nan
nan 0 0 -0 0 0 -0 -0 0 -0 -0 0 0 -0 -0 -1 -1 -1 -1 -1 -1 -1 -1 -0 -0 -0 -1 -0 0 0 -0 -0 0 0 0 0 0 1 0 -0 -0 -0 -0 -0 -1 -0 nan
nan 0 0 -0 0 0 0 0 -0 -0 -0 0 0 0 0 -0 -1 -1 -1 -1 -1 -1 -1 -1 -0 -0 -0 -0 -0 -0 -0 0 -0 -0 -0 0 0 0 -0 0 -0 -0 -0 0 -0 -0 nan
nan 0 -0 -0 0 0 0 0 0 -0 -0 -0 -0 0 0 -0 -1 -1 -1 -1 -3 -1 -2 -1 -1 0 -1 -1 -2 -2 -0 0 -0 1 0 0 0 0 -0 -0 -0 0 0 0 -0 -0 nan
nan 0 0 0 0 -0 -0 -0 0 0 -0 -0 -0 -0 1 0 -0 -1 -1 -0 -1 0 -2 -5 1 0 -1 2 -1 -1 0 0 0 1 0 -0 -0 -1 -0 -0 0 0 0 -0 -0 0 nan
nan 0 0 0 0 -0 0 0 -0 -0 -0 -0 -0 -0 0 0 -0 -0 -0 -0 1 2 -0 -3 0 -0 -0 -0 -1 -0 -0 -0 -0 -0 0 0 -0 -0 -0 0 -0 0 -0 -0 -0 -0 nan
nan 0 1 0 0 0 0 0 0 0 0 -0 -1 -0 0 0 -0 -0 -0 -0 0 1 0 -1 -0 0 0 0 -0 -0 -0 -0 0 -0 -0 -0 -0 -0 -0 -0 -0 -0 -0 -0 0 -0 nan
nan 0 0 1 0 0 0 -0 0 0 -0 -0 -0 -0 -0 0 0 -0 -0 -0 -0 -0 -0 -0 -0 -0 -0 0 -0 0 -0 0 0 -0 -0 -0 -0 0 0 -0 0 -0 -0 0 0 0 nan
nan 0 0 0 0 0 -0 0 0 0 -0 -0 0 0 0 0 0 -0 -0 -0 -0 -0 -1 -1 -0 -0 -0 -0 -0 -0 0 0 0 0 0 -0 -0 0 -0 0 0 0 0 0 0 0 nan
nan 0 0 0 0 0 0 0 0 -0 -0 0 1 1 1 0 -0 -0 -0 0 -0 -0 -0 -0 -0 -0 -0 -0 -0 -1 -0 0 0 -0 -0 -0 0 -0 0 0 0 0 -0 -0 0 -0 nan
nan -0 0 1 0 0 0 0 0 0 1 1 1 2 1 -0 -0 -0 0 -0 -0 -0 0 -0 -0 -0 -0 -0 -0 -0 -0 -0 -0 -0 -0 -0 -1 -0 -0 -0 -0 -0 0 -0 -0 -0 nan
nan -0 -0 0 1 1 1 1 1 0 1 2 2 1 -0 0 0 0 0 0 -0 0 -0 -0 -1 -0 -0 0 -0 -0 -0 -0 -0 -0 -0 -0 -1 -1 -0 -0 -0 -0 -0 -0 0 0 nan
nan 0 0 0 1 1 1 1 0 1 3 2 0 0 0 0 0 0 0 -0 -0 -0 -0 -0 -0 -0 -0 -1 -0 -0 -0 0 -0 -0 -1 -0 -1 0 -0 -0 -0 0 -0 0 0 0 nan
nan 0 0 -0 0 1 1 1 2 4 2 0 0 0 0 1 0 0 0 -0 -0 -0 -0 -0 0 -0 -0 -0 -0 -0 -0 -0 -1 -0 -1 0 -0 -1 -1 -0 -0 -0 -0 -0 -0 1 nan
nan -1 -0 0 1 1 2 4 4 1 0 0 0 0 0 0 0 0 -0 -0 -0 0 -0 0 -0 -0 -0 -0 -0 -0 -0 -0 -2 -1 -0 -0 0 -0 -2 -1 0 0 0 0 0 -0 nan
nan 0 1 2 4 5 4 3 1 0 0 0 0 0 0 0 0 -0 -0 0 0 0 -0 0 0 -0 -0 -0 -0 -0 -0 -1 -1 -0 -0 -0 0 -0 -1 -1 -0 -0 -0 -0 -0 0 nan
nan 2 3 4 3 2 1 0 0 0 1 1 -0 -0 0 0 0 0 0 0 0 0 -0 -0 -0 -0 0 0 0 0 -0 -0 0 -0 -1 -0 0 0 -0 -1 -0 -0 -1 -0 0 -0 nan
nan 3 3 2 0 0 0 0 1 1 1 0 -0 -0 -0 0 -0 0 0 0 0 -0 -0 -0 0 -0 -0 0 -0 -0 -0 -1 -0 -0 0 0 0 -0 -0 -0 -0 -0 -0 -0 -0 -0 nan
nan 1 0 0 0 0 0 1 0 0 -0 0 0 0 -0 0 0 0 0 0 0 0 0 0 0 -0 0 0 0 -0 -0 -0 -0 -0 -0 0 -0 0 -0 -1 -0 -0 -0 -0 -1 -1 nan
nan 0 1 0 0 0 0 0 0 0 0 0 0 0 -0 0 0 -0 -0 -0 0 0 -0 0 -0 0 -0 -0 0 0 0 0 0 -0 -0 -0 -0 0 -1 -1 0 -0 -1 -2 -1 -0 nan
nan 0 1 1 0 0 0 0 0 1 1 0 0 0 -0 0 0 0 0 0 0 0 0 -0 0 -0 -0 -0 -2 -0 1 0 -0 -0 0 0 -0 0 -0 -0 -1 -2 -0 0 -0 -0 nan
nan 0 0 0 1 0 0 0 0 0 0 0 0 0 -0 -0 0 0 0 0 0 0 0 -0 -0 0 -0 -0 -0 -1 -0 -0 0 0 0 -0 0 0 -0 -1 -1 -1 -0 -1 -0 -1 nan
nan 1 0 0 0 1 0 0 0 0 0 0 0 0 0 -0 0 0 0 0 0 0 -0 -0 -0 -0 0 -0 0 -0 -0 -0 -0 -0 -0 0 0 0 -0 -0 -0 -0 -1 -2 -1 -0 nan
nan 0 0 0 0 0 0 0 0 0 0 0 0 0 0 0 -0 0 0 0 -0 -0 0 -0 -0 -0 -0 0 -0 -0 -0 -0 -0 -0 -0 -0 0 0 -0 -0 -0 -0 -0 -1 -0 -0 nan
nan -0 0 0 0 0 0 0 0 0 0 0 0 0 0 0 -0 -0 -0 0 -0 -0 -0 -0 0 0 -0 -0 0 -0 -0 -0 -0 -0 0 0 0 -0 0 -0 -1 -0 -0 -0 -0 -1 nan
nan nan nan nan nan nan nan nan nan nan nan nan nan nan nan nan nan nan nan nan nan nan nan nan nan nan nan nan nan nan nan nan nan nan nan nan nan nan nan nan nan nan nan nan nan nan nan
Wind_Speed
21 20 20 20 20 20 19 19 18 18 19 21 21 22 24 26 30 32 33 36 36 35 35 34 33 33 32 21 17 9 10 10 7 5 4 3 2 1 2 3 3 5 5 7 11 23 23
23 22 22 22 22 21 20 19 18 18 19 21 21 22 23 25 29 32 34 37 36 36 37 35 33 30 23 9 10 8 9 11 9 7 5 5 2 3 6 4 3 3 7 17 19 23 15
25 24 24 22 23 23 21 19 18 19 20 20 20 22 23 25 30 34 35 38 40 40 40 38 33 26 22 26 16 13 14 13 9 10 10 7 4 4 3 6 5 8 7 8 9 5 5
25 25 25 24 23 23 21 20 18 19 20 21 22 24 26 29 31 36 39 40 40 42 39 35 26 21 12 14 12 11 14 9 5 8 11 9 8 10 7 6 5 5 1 3 5 1 3
25 25 25 24 24 23 22 21 19 18 19 20 22 26 29 31 33 36 41 41 41 35 35 21 21 12 13 7 7 8 8 8 8 6 7 8 10 9 4 2 4 2 5 4 8 3 3
26 26 25 24 24 24 23 21 20 19 19 20 21 26 29 32 33 35 41 41 30 28 15 21 11 9 7 4 6 10 13 13 9 8 9 7 4 1 2 4 5 6 4 4 5 6 8
27 27 27 26 24 24 24 23 22 21 20 22 24 25 30 32 33 34 40 41 26 7 24 21 37 34 43 38 36 37 32 25 16 8 5 1 1 11 10 8 3 2 4 6 12 9 4
27 28 28 28 27 26 25 24 23 22 22 25 26 27 29 30 32 30 30 18 14 14 17 35 37 33 31 30 12 6 6 10 9 7 5 1 9 15 5 6 8 6 7 9 6 8 6
28 29 29 28 29 28 27 26 25 25 25 25 26 27 28 30 31 26 18 12 15 21 7 29 12 10 6 3 7 3 10 8 5 6 7 8 7 5 8 6 6 5 5 5 9 3 4
30 29 29 29 29 29 28 28 27 28 27 27 28 28 27 29 21 10 13 11 14 16 4 7 5 2 2 1 3 3 7 4 2 8 6 6 6 5 4 5 5 4 10 7 5 5 5
32 30 29 30 30 29 29 29 29 29 29 31 31 29 29 27 17 16 16 10 7 8 7 3 2 1 5 3 8 5 8 5 4 3 3 7 3 3 4 6 6 10 8 8 4 5 4
33 32 31 30 31 30 30 30 31 30 32 33 32 30 31 25 17 16 11 3 4 4 8 7 5 7 7 3 3 5 3 6 3 3 3 7 2 3 6 7 7 6 4 4 4 4 9
35 33 33 32 32 32 32 33 31 32 35 34 32 33 29 20 13 11 3 5 2 4 5 5 4 6 5 5 6 7 4 2 3 5 3 4 5 4 4 8 2 1 4 4 3 2 10
37 35 34 35 33 34 34 34 33 33 33 34 33 30 20 13 12 10 8 4 5 5 6 4 5 7 4 6 3 7 6 6 7 5 4 4 18 2 7 5 4 4 5 4 7 13 17
38 36 35 36 35 36 36 37 35 36 35 34 27 16 13 12 13 10 11 3 5 4 2 7 8 4 3 1 4 6 4 2 5 11 4 6 9 11 10 5 6 5 4 5 10 15 13
38 35 36 36 38 38 38 37 37 38 38 30 18 10 11 9 11 12 3 5 5 2 2 2 1 2 3 7 7 11 5 6 5 12 15 7 10 3 5 9 8 11 4 6 3 9 18
39 36 38 36 38 41 41 42 41 40 30 20 12 5 10 16 14 13 3 6 5 5 3 4 3 4 2 3 5 2 3 7 9 9 9 6 5 14 11 1 4 9 9 9 12 10 10
36 38 40 40 42 38 44 46 41 33 23 16 11 1 14 19 4 4 3 5 2 1 4 1 2 2 2 3 2 3 4 3 22 15 9 8 5 11 25 21 13 11 16 13 7 12 14
30 31 32 31 38 42 42 34 25 19 18 14 10 5 13 23 4 3 2 2 2 2 1 1 1 2 2 2 4 5 5 10 19 12 10 7 2 7 11 11 2 4 6 17 19 16 16
27 25 27 33 36 33 28 23 19 15 13 14 8 2 2 12 2 2 3 3 2 4 2 4 4 3 1 2 4 5 7 5 19 13 18 13 7 12 15 20 18 20 20 21 19 14 22
30 35 36 31 27 21 16 13 13 16 20 15 5 3 3 2 3 4 3 2 3 3 5 4 2 3 3 2 4 6 4 13 4 13 3 3 11 13 16 17 21 23 25 25 26 25 23
32 25 22 18 16 14 15 17 18 18 21 15 7 5 5 3 4 5 6 4 6 4 3 3 3 2 2 4 6 11 10 4 9 8 7 4 14 14 16 19 22 23 24 26 25 29 29
20 18 19 18 19 18 16 18 19 22 24 9 9 9 5 2 3 4 3 4 4 4 1 3 3 1 4 6 10 16 20 22 17 14 20 10 10 15 20 16 16 17 24 21 18 22 20
20 20 19 18 18 19 19 19 18 19 23 12 15 11 4 2 3 3 2 2 3 3 1 4 9 2 3 18 21 20 20 22 22 20 22 13 17 11 15 11 21 14 9 12 10 18 12
20 21 21 21 18 15 15 15 15 16 18 10 12 9 5 2 1 1 5 2 1 2 3 5 10 10 14 9 3 5 4 5 6 8 6 6 10 5 7 12 21 17 10 9 2 13 10
16 15 15 14 14 14 13 12 11 12 12 13 9 8 4 7 3 2 3 3 2 1 3 4 4 12 6 2 1 2 3 4 4 7 5 10 6 4 5 6 6 4 17 30 12 10 12
14 12 12 11 12 12 11 10 9 9 10 10 9 8 4 2 2 5 3 3 4 2 2 5 3 4 0 1 2 3 3 2 3 5 5 10 4 3 6 4 7 9 22 24 4 4 14
12 11 10 11 11 11 10 9 9 8 7 7 7 7 8 4 5 6 6 7 6 5 3 2 4 2 2 1 2 3 2 3 3 5 10 5 5 3 3 3 7 20 27 7 15 24 21
11 12 13 12 13 13 12 10 10 7 6 6 5 6 8 7 5 4 6 14 22 19 14 8 6 4 4 2 1 0 2 2 5 3 3 4 4 3 4 6 26 43 30 36 30 23 26
Wind_Direction
257 262 266 271 277 284 290 296 302 306 311 318 321 324 329 334 336 338 340 343 344 341 336 334 327 324 325 312 297 269 251 250 264 291 306 281 289 325 254 265 294 224 269 272 271 291 290
255 259 264 270 275 280 285 290 295 301 306 311 314 320 326 331 336 334 335 339 342 339 335 330 322 316 313 291 281 273 223 226 270 281 293 243 237 297 267 247 201 286 272 283 293 277 267
257 259 263 265 272 277 282 285 290 295 302 306 310 316 322 327 332 327 330 336 337 335 333 327 316 312 293 275 274 271 251 257 258 264 273 253 250 269 300 304 289 294 312 323 268 264 242
257 260 262 265 267 272 276 279 283 290 300 304 318 322 325 327 330 329 328 333 334 329 327 319 318 313 272 284 262 254 272 262 220 250 253 245 259 267 240 270 335 326 10 310 285 312 259
256 259 261 263 265 267 269 274 279 285 296 308 314 320 323 326 332 330 327 332 334 330 319 323 316 312 275 287 267 238 237 219 236 247 237 242 245 246 240 97 359 341 260 237 313 231 287
257 258 260 261 263 264 265 268 273 279 289 299 307 315 319 323 330 330 327 330 337 326 317 336 316 320 259 281 278 262 248 239 278 272 281 242 217 178 55 117 234 229 247 249 256 295 320
257 259 259 259 259 260 263 264 270 276 285 293 299 311 321 323 326 329 327 335 343 332 309 290 283 270 273 281 281 276 262 267 269 253 199 227 163 239 220 208 224 250 249 266 267 274 277
260 260 260 259 258 259 262 265 267 272 281 289 300 311 314 319 320 324 326 353 355 311 304 304 292 278 281 278 296 304 216 190 192 214 134 41 233 253 198 211 235 246 272 272 285 260 180
260 259 261 260 258 259 260 261 264 268 273 282 291 299 308 314 317 319 321 340 335 324 277 301 288 262 296 207 220 293 172 179 170 175 189 174 228 108 178 242 197 210 205 230 247 292 241
259 262 261 259 259 258 258 260 263 268 275 282 290 295 305 306 315 310 314 324 331 337 322 279 314 311 298 53 266 282 216 212 206 214 195 221 256 222 186 211 187 228 222 240 248 -0 281
257 260 260 259 257 257 257 259 262 269 275 281 285 287 294 298 284 290 300 312 343 348 313 288 323 5 324 274 314 25 208 214 235 223 150 244 246 257 262 234 175 264 200 214 226 245 334
256 257 259 258 258 256 256 258 263 269 273 277 278 282 287 282 274 284 295 311 25 53 249 313 2 357 4 318 287 307 213 222 266 271 236 236 291 217 222 235 207 273 271 218 219 145 250
254 256 258 258 256 256 257 260 264 270 272 273 274 275 268 263 263 271 252 124 13 187 347 329 341 354 331 308 318 9 328 267 235 317 296 312 237 232 269 294 205 221 48 307 292 178 246
254 254 256 258 257 256 256 259 263 262 264 266 266 263 245 251 258 235 155 67 205 204 250 19 343 310 284 5 4 338 1 1 30 355 332 291 299 73 345 49 315 270 197 200 271 278 286
253 253 256 258 258 258 258 257 256 257 256 254 242 226 235 246 226 178 151 175 215 216 346 345 307 309 306 187 360 3 358 289 48 24 350 343 267 332 358 34 24 342 289 284 281 272 271
248 251 255 257 259 255 253 256 254 247 242 223 203 215 243 207 178 180 114 237 244 281 54 0 352 347 292 355 13 7 337 33 43 37 17 41 303 97 347 336 266 213 313 300 251 274 264
244 253 257 261 260 252 251 252 244 227 204 194 200 185 181 155 177 168 206 221 252 35 85 44 246 258 311 341 335 289 287 346 47 7 342 344 224 286 325 354 349 304 281 270 287 264 273
247 250 256 260 258 251 243 236 211 194 190 196 178 152 170 174 144 200 193 196 355 227 82 164 282 268 300 5 308 260 248 319 7 353 329 290 251 269 279 297 285 265 270 262 250 273 260
251 256 258 255 240 222 204 190 183 189 192 185 151 155 171 176 202 191 224 199 194 188 72 116 195 195 53 289 302 238 245 15 30 20 353 349 278 294 297 287 322 352 342 307 298 295 281
237 239 234 213 188 181 183 183 186 189 194 180 136 147 183 195 179 143 173 214 203 213 179 205 232 233 228 231 227 291 310 320 350 317 303 285 258 256 273 284 299 291 292 287 285 281 282
200 184 168 168 170 174 181 185 186 172 165 157 148 190 174 190 213 168 159 168 177 185 207 187 176 80 46 272 314 271 307 313 279 293 257 290 260 266 279 279 279 274 274 279 275 274 273
160 160 163 168 165 166 171 167 164 164 174 186 147 151 159 166 134 163 187 208 212 208 166 195 196 77 292 217 225 286 285 277 276 276 280 235 278 282 268 272 268 274 274 263 269 272 267
154 157 156 159 155 159 164 174 182 189 188 180 170 158 157 131 154 125 218 196 149 130 310 167 99 298 267 271 302 289 279 269 258 270 278 272 267 274 279 280 305 279 259 258 257 267 263
149 152 153 157 164 170 179 183 183 185 190 190 180 166 153 195 183 195 179 140 150 151 225 268 307 187 257 317 310 294 279 261 261 264 257 269 270 268 273 297 272 269 250 253 272 276 272
160 168 171 175 173 170 172 175 179 180 187 187 176 174 156 131 139 169 183 190 186 234 238 247 270 261 312 320 337 318 279 276 252 235 280 229 268 260 254 256 276 288 323 336 300 299 290
164 166 168 171 172 175 170 175 181 185 189 196 181 190 151 120 223 179 134 162 180 199 349 264 264 301 309 96 58 261 273 294 316 308 230 327 210 235 301 281 280 42 348 337 293 299 6
165 172 177 178 174 167 170 174 180 192 195 199 201 209 191 168 201 155 171 178 160 136 197 277 294 318 332 223 243 233 260 92 260 289 326 321 310 238 280 281 270 24 342 329 234 355 328
190 194 192 186 178 178 183 189 184 193 186 189 188 201 208 200 227 222 230 195 165 188 156 232 349 251 42 92 178 249 201 256 294 296 294 285 310 306 305 297 283 350 339 355 312 301 306
219 215 211 200 190 194 197 190 190 198 202 205 204 223 229 236 251 260 249 244 241 252 261 216 218 197 222 93 292 338 301 290 275 269 261 269 184 231 231 259 295 298 289 289 298 316 316
Height
1545 1547 1547 1548 1548 1549 1548 1548 1547 1546 1545 1543 1542 1539 1537 1534 1531 1527 1522 1519 1515 1510 1505 1500 1496 1491 1488 1485 1479 1476 1476 1477 1478 1478 1479 1479 1479 1479 1481 1478 1476 1475 1470 1468 1467 1464 1461
1541 1542 1543 1544 1545 1545 1545 1545 1545 1544 1542 1541 1540 1538 1535 1532 1528 1524 1520 1517 1512 1508 1504 1499 1494 1490 1487 1487 1476 1475 1474 1475 1476 1477 1477 1478 1478 1479 1477 1477 1476 1471 1469 1465 1461 1458 1457
1537 1538 1540 1540 1541 1542 1542 1542 1542 1541 1540 1539 1537 1535 1532 1530 1526 1521 1517 1514 1511 1505 1499 1495 1490 1486 1483 1476 1473 1472 1472 1473 1474 1475 1476 1476 1476 1477 1477 1474 1473 1470 1470 1464 1456 1453 1452
1532 1533 1535 1535 1536 1538 1538 1538 1538 1537 1536 1536 1535 1533 1530 1527 1524 1520 1515 1512 1508 1501 1496 1490 1486 1483 1475 1471 1470 1470 1470 1471 1471 1471 1472 1474 1475 1476 1475 1473 1470 1472 1472 1475 1456 1452 1448
1527 1528 1530 1530 1532 1533 1534 1534 1534 1534 1533 1532 1532 1529 1527 1525 1521 1517 1513 1508 1504 1498 1492 1488 1484 1482 1471 1469 1468 1469 1470 1469 1469 1470 1470 1471 1473 1473 1474 1476 1481 1477 1481 1475 1468 1452 1452
1522 1523 1525 1525 1527 1528 1529 1529 1530 1530 1529 1528 1528 1527 1524 1522 1519 1515 1509 1504 1499 1494 1490 1487 1483 1484 1470 1469 1467 1467 1468 1467 1467 1467 1468 1470 1469 1472 1476 1480 1489 1479 1478 1474 1474 1460 1454
1517 1518 1520 1521 1521 1523 1524 1525 1525 1525 1525 1524 1523 1523 1521 1519 1517 1513 1507 1499 1497 1494 1490 1493 1480 1477 1466 1464 1462 1458 1462 1464 1465 1466 1469 1468 1474 1472 1469 1470 1467 1468 1471 1473 1464 1458 1458
1512 1513 1514 1515 1517 1518 1519 1521 1521 1521 1521 1521 1519 1519 1518 1516 1515 1512 1509 1506 1507 1507 1485 1476 1466 1465 1458 1459 1458 1451 1455 1461 1463 1466 1465 1471 1470 1455 1459 1464 1466 1467 1472 1471 1458 1452 1457
1506 1507 1508 1510 1511 1512 1514 1515 1516 1516 1516 1516 1515 1516 1515 1514 1513 1512 1510 1509 1506 1504 1496 1467 1459 1460 1456 1456 1456 1451 1452 1454 1456 1463 1465 1470 1456 1450 1457 1458 1462 1463 1466 1463 1460 1453 1452
1501 1501 1502 1504 1506 1507 1508 1509 1511 1511 1512 1511 1511 1511 1512 1512 1513 1509 1510 1509 1507 1503 1501 1474 1460 1458 1457 1454 1453 1452 1452 1454 1455 1457 1458 1461 1450 1450 1452 1453 1453 1460 1452 1450 1452 1458 1465
1494 1495 1496 1498 1499 1501 1503 1504 1505 1506 1507 1507 1506 1507 1508 1507 1509 1509 1509 1508 1507 1506 1508 1465 1461 1460 1457 1458 1454 1449 1449 1453 1452 1451 1454 1453 1445 1446 1451 1449 1447 1444 1442 1445 1447 1455 1458
1487 1489 1490 1492 1494 1495 1496 1497 1499 1501 1502 1501 1502 1503 1504 1504 1504 1506 1506 1507 1508 1514 1502 1472 1464 1464 1462 1457 1455 1451 1451 1450 1451 1450 1448 1448 1444 1444 1443 1440 1442 1437 1440 1443 1443 1452 1459
1479 1481 1483 1484 1487 1488 1489 1491 1493 1495 1497 1496 1497 1498 1499 1500 1501 1503 1505 1507 1515 1511 1477 1474 1474 1470 1468 1464 1459 1456 1453 1452 1455 1457 1453 1446 1444 1440 1439 1439 1438 1442 1447 1458 1455 1459 1438
1472 1474 1475 1477 1479 1481 1482 1484 1486 1487 1489 1491 1492 1495 1496 1498 1500 1500 1503 1512 1512 1487 1484 1477 1476 1471 1471 1468 1463 1461 1461 1463 1457 1459 1461 1458 1442 1438 1444 1445 1448 1448 1447 1459 1449 1440 1431
1464 1465 1467 1469 1471 1473 1475 1477 1478 1480 1481 1484 1487 1491 1493 1494 1498 1500 1503 1511 1490 1488 1484 1485 1477 1471 1471 1469 1469 1468 1468 1466 1467 1467 1470 1471 1448 1437 1445 1448 1451 1449 1452 1443 1444 1438 1439
1454 1456 1458 1460 1462 1464 1465 1467 1469 1471 1473 1477 1483 1487 1490 1491 1494 1502 1505 1500 1492 1487 1487 1486 1487 1485 1483 1475 1473 1475 1473 1470 1472 1475 1475 1481 1476 1449 1448 1450 1446 1447 1444 1447 1445 1440 1430
1443 1446 1449 1451 1451 1452 1454 1456 1459 1463 1469 1475 1483 1484 1486 1489 1495 1499 1500 1497 1491 1489 1487 1490 1491 1487 1485 1486 1483 1482 1475 1471 1476 1480 1478 1479 1484 1449 1452 1449 1450 1451 1453 1449 1444 1438 1435
1432 1436 1439 1440 1442 1444 1444 1448 1451 1457 1465 1473 1476 1483 1483 1489 1494 1492 1489 1489 1490 1488 1487 1489 1491 1490 1489 1489 1488 1483 1479 1475 1476 1477 1478 1476 1472 1468 1447 1439 1444 1443 1440 1443 1444 1434 1423
1423 1426 1429 1431 1435 1435 1440 1446 1452 1458 1463 1469 1473 1480 1482 1485 1486 1486 1485 1484 1486 1487 1487 1489 1487 1487 1492 1492 1490 1484 1479 1477 1479 1484 1483 1480 1475 1467 1448 1438 1437 1442 1442 1441 1440 1433 1427
1416 1417 1421 1425 1431 1436 1442 1446 1451 1456 1461 1468 1475 1480 1481 1482 1481 1481 1483 1484 1486 1487 1486 1488 1489 1488 1489 1490 1488 1486 1483 1481 1480 1482 1481 1480 1474 1472 1466 1458 1455 1449 1443 1439 1440 1434 1419
1413 1418 1422 1428 1431 1439 1444 1446 1451 1454 1459 1468 1472 1475 1476 1479 1480 1481 1483 1484 1483 1484 1484 1484 1485 1487 1489 1491 1491 1487 1484 1482 1480 1479 1477 1478 1474 1469 1461 1458 1456 1449 1440 1433 1429 1421 1421
1415 1422 1426 1429 1433 1437 1442 1446 1450 1455 1459 1466 1469 1472 1476 1478 1479 1480 1481 1483 1481 1483 1484 1484 1485 1486 1488 1490 1488 1489 1486 1485 1480 1473 1475 1470 1463 1463 1459 1450 1445 1439 1431 1423 1416 1405 1396
1417 1424 1428 1430 1431 1436 1443 1447 1449 1455 1460 1462 1465 1468 1470 1475 1479 1480 1482 1480 1480 1482 1484 1483 1485 1488 1488 1485 1485 1482 1481 1477 1474 1473 1466 1467 1462 1459 1451 1441 1441 1433 1409 1407 1392 1385 1381
1418 1426 1429 1432 1434 1435 1442 1446 1449 1454 1458 1460 1463 1467 1469 1474 1476 1476 1479 1480 1480 1482 1485 1486 1485 1484 1482 1482 1480 1476 1471 1467 1463 1458 1457 1459 1454 1454 1443 1443 1437 1396 1388 1385 1383 1376 1373
1424 1429 1430 1433 1434 1438 1444 1447 1451 1453 1458 1461 1463 1466 1467 1472 1473 1476 1478 1481 1482 1481 1483 1485 1482 1482 1481 1480 1482 1477 1465 1457 1451 1449 1450 1450 1450 1444 1441 1431 1407 1392 1389 1389 1383 1373 1369
1428 1430 1433 1436 1437 1440 1443 1448 1451 1455 1457 1463 1464 1465 1467 1470 1473 1473 1476 1479 1482 1482 1483 1484 1483 1482 1480 1479 1482 1486 1473 1459 1455 1452 1444 1445 1442 1445 1438 1427 1408 1395 1394 1393 1382 1376 1371
1428 1431 1433 1436 1439 1439 1444 1448 1451 1456 1461 1462 1464 1465 1469 1471 1470 1471 1475 1478 1478 1481 1485 1484 1482 1480 1477 1479 1481 1477 1470 1467 1469 1455 1449 1444 1440 1448 1433 1427 1405 1400 1398 1387 1380 1380 1373
1428 1429 1431 1435 1437 1440 1444 1449 1455 1458 1459 1461 1463 1464 1469 1470 1469 1471 1472 1474 1475 1479 1483 1481 1483 1479 1479 1486 1484 1483 1476 1463 1461 1453 1451 1448 1445 1444 1436 1438 1412 1391 1393 1396 1388 1376 1377
1426 1428 1432 1435 1438 1441 1445 1448 1453 1456 1459 1463 1463 1465 1466 1469 1469 1467 1467 1468 1470 1473 1475 1476 1477 1475 1473 1479 1483 1479 1473 1465 1461 1464 1444 1448 1446 1452 1438 1424 1404 1401 1401 1393 1387 1381 1374